Regional Weather Roundup
Issued by NWS

Home | Current Version | Previous Version | Graphics & Text | Print | Product List | Glossary On
Versions: 1 2 3 4 5 6 7 8 9 10 11 12 13 14 15 16 17 18 19 20 21 22 23 24 25 26 27 28 29 30 31 32 33 34 35 36 37 38 39 40 41 42 43 44 45 46 47 48 49 50
000
ASUS43 KBIS 280610
RWRND

NORTH DAKOTA REGIONAL WEATHER ROUNDUP
NATIONAL WEATHER SERVICE BISMARCK ND
100 AM CDT TUE MAR 28 2017

NOTE: "FAIR" INDICATES FEW OR NO CLOUDS BELOW 12,000 FEET WITH NO
SIGNIFICANT WEATHER AND/OR OBSTRUCTIONS TO VISIBILITY.


NDZ001>003-009>011-017-280700-
NORTHWEST NORTH DAKOTA

CITY           SKY/WX    TMP DP  RH WIND       PRES   REMARKS
WILLISTON      CLOUDY    40  37  89 E9        30.01S
6HR MIN TEMP:  39; 6HR MAX TEMP:  54; 6HR PCP:  0.01;

MINOT          FOG       36  35  96 NE7       30.06R VSB 1/4
MINOT AFB      FOG       36  36 100 NE7       30.06R VSB 1/2
$$

NDZ018>021-031>035-040>046-280700-
SOUTHWEST NORTH DAKOTA

CITY           SKY/WX    TMP DP  RH WIND       PRES   REMARKS
BISMARCK       FAIR      40  35  83 E3        30.02R
6HR MIN TEMP:  39; 6HR MAX TEMP:  63;

DICKINSON      FAIR      38  30  73 SE7       29.96R
GARRISON         N/A     36  36 100 E12       30.02R
6HR MIN TEMP:  36; 6HR MAX TEMP:  46;

HETTINGER ARPT CLEAR     39  31  72 SE5       29.99S
$$

NDZ004>008-012>016-024-026-027-054-280700-
NORTHEAST NORTH DAKOTA

CITY           SKY/WX    TMP DP  RH WIND       PRES   REMARKS
GRAND FORKS    CLOUDY    35  35 100 N7        30.09S FOG
GRND FRKS AFB  PTCLDY    35  35 100 NW7       30.10R
DEVILS LAKE    FAIR      34  33  96 E8        30.08S FOG
$$

NDZ022-023-025-028>030-036>039-047>053-280700-
SOUTHEAST NORTH DAKOTA

CITY           SKY/WX    TMP DP  RH WIND       PRES   REMARKS
FARGO          FOG       37  37 100 NE9       30.06S VSB 1/4
6HR MIN TEMP:  37; 6HR MAX TEMP:  55;

JAMESTOWN      FOG       34  34 100 E6        30.05R VSB 1/4
$$





USA.gov is the U.S. government's official web portal to all federal, state and local government web resources and services.